Starlink 35274

operational
NORAD ID: 66072 Int'l Des: 2025-235 Owner: SPXS Country: US Constellation: starlink
NOTLE

关于 Starlink 35274

正在加载描述...

实时位置

正在加载3D地球...

即将过境

高度历史

Altitude vs Time

uPlot chart will show altitude changes over time

两行轨道根数

1 66072C 25235R 25293.06576389 .00536470 00000+0 79435-3 0 2935
2 66072 53.1589 188.8651 0005729 294.4163 188.6817 16.03625748 15
Epoch: Oct 20, 2025 • Age: 20 hours

当前状态

高度 268.9 km
速度 7.75 km/s
星下点 37.70°N, 7.02°E
发射日期 Oct 19, 2025
运行时间 1 days
类型 internet

技术详情

分类 Payload
质量 575.00 kg
干质量 530.00 kg
总质量 575.00 kg
长度 0.30 m
直径 4.10 m
跨度 29.00 m
形状 Box + pan
制造商 SPXS
平台类型 Starlink V2MO
阶段状态 In Orbit
所有者/国家 SPXS/US

大型星座

Loading constellations...